Theta_e
302 302 302 302 301 301 301 301 301 301 302 303 305 306 307 310 310 310 310 309 310 309 309 309 308 310 312 312 311 311 317 316 314 314 314 311 311 311 311 311 313 313 312 311 312
302 302 302 302 301 301 301 301 301 301 302 303 305 306 306 309 310 310 309 308 309 309 308 310 311 311 313 313 313 316 317 314 312 312 313 310 312 313 313 314 314 313 311 311 313
303 302 302 302 301 301 301 300 301 301 301 302 305 307 307 308 311 311 309 308 309 309 308 308 310 312 313 313 312 313 316 312 310 310 311 312 312 312 314 316 314 311 310 312 315
305 302 302 302 301 301 301 301 300 301 301 303 304 307 308 309 319 310 309 308 309 309 309 308 310 313 314 314 311 313 311 312 311 310 311 312 312 313 313 314 312 310 308 313 314
310 303 303 302 301 301 300 300 300 300 301 303 305 306 307 311 312 309 309 308 308 308 308 310 311 313 314 312 313 313 311 312 311 311 311 311 313 314 313 312 311 307 310 312 313
314 308 304 302 301 301 300 300 300 300 301 304 306 306 308 312 309 309 309 308 308 309 308 309 311 312 311 312 314 312 312 312 312 311 311 312 313 312 313 311 310 307 310 310 311
321 318 310 305 302 301 300 300 300 300 302 304 306 307 308 312 309 309 308 309 308 309 309 309 310 312 312 312 312 312 314 313 312 312 313 311 313 314 313 312 309 307 308 308 311
322 322 319 310 304 301 300 300 300 300 302 304 306 306 311 308 309 309 309 309 310 309 308 309 310 311 313 311 312 314 314 316 313 312 312 311 316 313 312 312 310 307 307 307 308
322 322 320 316 308 302 300 300 299 300 302 304 305 306 311 308 308 309 309 311 310 310 310 310 311 312 312 315 316 314 319 317 313 311 313 313 317 314 312 312 310 307 307 306 306
321 321 320 318 312 304 300 300 299 300 303 304 305 307 306 308 308 309 309 310 312 311 311 310 313 315 315 318 322 319 315 311 313 312 312 315 315 314 313 312 312 308 307 306 305
320 319 320 318 313 308 301 299 300 302 303 308 308 308 307 307 308 308 309 311 312 313 314 310 314 317 315 315 309 313 316 317 311 311 311 315 315 314 313 312 313 310 307 306 305
319 319 318 314 312 309 302 299 303 304 308 304 305 306 307 307 309 308 309 312 312 314 310 310 313 311 310 310 311 313 315 317 312 309 310 311 312 312 311 313 313 311 307 305 304
319 319 318 316 313 310 306 299 300 304 307 306 304 306 307 307 309 310 309 311 312 313 311 313 312 309 311 311 311 311 313 313 313 311 312 313 315 314 312 312 312 311 308 304 303
318 319 318 316 312 308 301 300 300 304 319 311 305 306 306 308 309 308 310 311 312 312 310 312 309 310 311 312 311 312 310 310 311 313 316 309 323 314 313 312 312 312 308 304 303
317 319 318 318 314 308 306 305 301 305 318 313 305 304 306 308 307 308 308 309 312 311 311 312 310 311 310 309 309 313 310 312 313 313 313 311 310 317 311 311 312 311 306 304 302
317 318 318 317 316 315 313 309 301 316 312 308 305 306 307 306 307 307 308 308 309 310 310 310 308 310 309 307 308 310 312 312 312 313 322 313 310 314 311 311 311 309 306 304 302
316 316 318 317 314 315 311 301 309 313 310 311 306 307 308 307 308 310 310 309 313 315 317 310 310 307 307 309 309 311 313 319 323 322 323 308 309 313 311 311 312 309 306 304 302
315 316 317 315 316 313 303 303 308 314 314 304 306 307 308 307 309 309 310 311 311 311 313 313 312 308 307 309 311 311 313 322 325 319 314 306 310 313 309 309 311 308 306 305 303
314 315 314 312 315 310 304 308 313 314 310 306 306 309 308 306 308 309 311 312 311 309 316 313 311 306 306 307 309 310 310 308 311 306 314 314 312 310 308 308 309 311 307 305 304
313 314 309 311 308 306 305 310 308 308 309 307 313 310 311 307 309 310 311 312 311 310 308 311 311 306 306 306 307 308 307 311 311 323 322 313 312 316 309 309 310 310 310 307 305
310 310 307 307 302 303 307 309 306 304 306 308 313 310 310 308 311 309 312 310 311 310 306 309 313 306 306 307 309 307 308 308 309 310 316 315 315 313 313 310 310 311 310 309 305
308 303 301 304 300 300 306 307 304 304 303 305 309 310 309 308 308 310 311 309 308 306 307 308 311 310 308 305 305 307 310 310 314 313 309 311 315 308 309 311 310 310 310 310 306
304 298 299 302 306 303 300 303 302 302 303 304 306 307 305 307 310 308 309 303 304 306 309 307 314 311 311 307 305 306 307 308 308 309 310 319 316 306 305 306 307 309 310 310 308
299 299 296 298 301 304 305 305 303 300 303 303 305 303 303 304 302 310 306 303 302 305 303 305 311 320 317 314 308 306 307 307 309 316 315 312 315 310 307 306 308 307 308 308 309
298 301 298 301 300 304 306 306 307 303 300 303 302 305 306 306 304 305 305 303 303 303 304 308 313 308 305 304 307 308 308 309 308 311 313 314 312 314 311 308 308 308 307 307 308
298 299 298 302 301 303 306 305 307 305 302 304 305 307 305 307 307 306 304 305 307 304 305 303 309 304 305 301 302 305 308 309 308 308 311 310 309 311 312 310 309 309 307 307 306
298 299 300 303 302 303 305 307 307 307 303 306 305 305 305 306 303 302 301 303 305 305 306 306 304 309 317 300 303 310 305 308 308 308 309 310 311 309 309 308 309 307 307 307 307
Wind_Speed
11 12 11 11 10 8 7 7 6 4 4 3 3 3 3 1 2 1 2 2 3 3 3 5 6 6 4 2 3 1 3 4 4 5 6 6 5 3 2 6 5 5 9 15 19
12 11 12 11 10 10 9 7 6 5 4 4 3 3 3 4 1 1 2 2 2 3 5 4 5 5 3 2 3 3 3 3 2 4 6 6 4 2 4 4 7 8 12 15 16
15 13 11 12 11 10 10 9 8 6 5 4 4 3 2 3 2 5 2 1 1 3 4 7 7 4 4 4 3 3 0 7 4 4 5 6 4 3 5 5 5 14 17 16 15
16 14 13 11 11 11 10 10 9 8 6 5 4 4 3 4 3 3 2 1 2 4 6 7 5 3 3 3 2 4 5 3 7 4 3 3 2 5 6 5 8 12 15 14 16
18 14 13 12 11 11 10 10 9 9 7 5 5 4 3 4 4 3 2 1 2 4 6 5 7 5 5 7 8 8 7 7 7 4 2 2 6 6 8 5 9 11 12 12 14
14 17 14 13 13 11 11 10 10 8 8 6 4 4 4 7 4 3 1 0 3 6 6 7 5 8 10 5 3 9 10 10 6 3 1 4 4 3 3 4 8 10 11 12 12
17 17 19 14 13 13 12 10 10 9 8 7 4 3 4 6 6 4 2 3 5 8 6 8 11 3 10 9 11 15 8 6 5 3 1 4 8 9 2 4 8 9 10 11 12
22 21 19 15 14 14 12 12 9 9 9 7 5 3 5 6 7 7 6 6 6 7 13 11 9 11 5 17 7 4 5 5 5 3 3 1 1 5 1 5 8 8 9 11 13
23 25 22 15 14 16 13 11 11 8 8 7 5 3 4 7 7 9 9 7 10 9 11 10 5 6 10 8 5 4 3 4 5 4 1 6 6 3 4 6 9 6 8 9 12
25 25 24 15 13 16 13 10 9 8 7 6 7 3 7 5 10 11 10 11 4 10 6 1 2 4 7 6 4 5 4 4 4 5 6 8 14 7 8 8 10 6 6 8 11
26 24 21 21 12 14 13 5 5 5 11 6 3 2 4 7 10 11 13 8 6 4 5 2 5 7 13 5 2 2 2 3 2 2 3 10 13 11 10 10 10 6 5 7 10
28 22 20 16 13 12 13 8 6 3 7 17 10 8 8 11 4 10 14 7 7 7 5 4 6 4 5 5 6 5 4 1 0 2 2 5 13 13 11 8 7 7 5 7 9
26 23 23 18 15 18 15 18 6 5 6 5 12 7 8 13 4 12 15 5 7 7 7 5 5 7 4 7 8 3 3 4 1 3 7 8 7 4 6 7 8 9 3 4 9
28 28 27 23 19 19 15 10 8 4 3 6 7 7 12 9 7 13 16 4 3 7 7 1 7 5 5 6 3 5 2 3 3 3 2 2 3 4 8 6 8 6 2 3 4
31 31 34 29 17 25 15 9 7 1 3 6 5 6 10 9 11 6 13 3 7 7 5 4 9 8 6 1 2 4 5 2 1 3 4 6 4 4 5 6 7 6 5 6 4
29 33 37 34 34 21 21 19 14 3 10 4 5 8 10 6 5 7 5 5 7 5 6 5 2 2 3 4 1 10 5 3 2 2 3 4 3 5 7 5 9 11 12 10 6
30 34 37 37 42 30 23 26 5 8 1 5 5 8 14 8 8 10 13 10 8 5 5 5 6 2 6 6 4 4 5 2 2 2 3 2 4 6 7 8 9 13 15 10 6
28 32 43 42 41 34 39 6 6 6 6 2 4 9 9 11 8 9 14 12 13 5 7 9 6 12 11 4 3 10 2 3 4 3 2 2 6 2 5 8 8 10 10 7 5
29 32 46 46 38 38 32 4 8 6 13 13 9 5 6 5 4 10 14 10 14 15 6 10 4 3 3 1 2 6 7 3 2 2 2 4 5 5 7 8 11 11 10 9 8
31 40 29 44 38 44 6 12 6 3 8 11 10 9 10 9 8 9 13 10 7 17 4 7 5 3 3 2 3 4 2 3 2 2 4 3 5 4 11 14 13 14 15 14 12
13 18 24 35 45 24 7 7 6 10 7 12 12 5 7 8 7 8 9 2 16 18 10 7 4 5 4 10 11 5 4 4 2 2 2 2 3 3 10 15 15 16 18 16 15
11 5 30 49 10 6 4 7 7 8 11 4 2 8 9 10 11 8 11 5 13 17 12 5 5 5 5 2 3 3 6 10 4 5 2 1 4 1 4 8 12 14 15 15 15
7 9 40 51 11 9 3 4 5 7 7 6 5 4 3 9 6 10 7 3 11 12 15 9 4 5 1 3 3 6 8 7 2 1 6 4 1 1 5 7 10 14 15 16 16
7 5 7 26 5 15 12 9 7 6 5 4 4 4 5 2 3 6 6 2 2 5 3 5 5 4 8 4 8 8 15 16 10 4 5 7 2 6 10 11 13 16 17 18 19
11 5 12 11 13 18 23 16 17 8 3 10 2 10 7 5 5 5 3 3 2 4 1 3 5 2 2 3 3 3 15 21 20 13 11 2 11 7 14 16 20 17 16 19 21
6 5 12 2 20 12 20 16 24 11 13 12 11 19 12 7 8 8 9 4 2 6 4 3 1 2 2 2 2 4 11 18 19 12 15 10 12 11 7 14 17 20 20 21 23
23 15 4 9 17 15 16 23 28 23 16 20 23 6 10 9 11 9 10 10 2 6 8 7 6 3 4 1 2 8 14 20 14 15 18 15 15 6 9 10 19 22 25 27 27
Wind_Direction
269 273 273 279 284 286 289 296 299 298 296 294 296 269 226 58 110 179 273 246 229 197 163 129 131 144 99 70 39 4 227 168 152 178 136 153 197 182 279 265 261 279 299 307 316
274 266 274 274 276 285 288 286 287 288 286 285 282 266 236 229 133 5 274 250 209 175 146 155 158 138 98 72 12 298 252 127 67 94 146 152 212 192 260 269 270 292 306 314 321
294 273 265 273 274 275 283 287 284 279 281 279 270 251 246 221 247 246 284 292 203 168 159 172 163 140 111 91 28 5 126 136 134 112 125 138 206 225 279 261 324 319 322 325 330
306 289 276 269 271 272 276 280 284 281 272 272 269 253 232 192 265 229 276 278 191 169 160 156 172 147 123 121 110 109 97 111 131 123 124 178 236 247 248 305 316 318 320 324 328
312 296 290 281 268 266 273 275 278 280 278 272 269 258 222 242 241 231 260 304 201 179 178 187 183 163 135 116 95 102 137 118 122 124 101 262 238 280 268 281 312 317 329 329 330
305 307 297 289 280 269 267 272 273 273 276 277 273 253 223 245 230 218 230 74 198 180 181 166 187 133 104 91 15 122 133 126 144 136 132 277 247 285 184 292 312 326 341 348 344
283 296 304 299 285 273 267 263 269 269 266 270 268 262 242 250 215 190 146 139 107 155 166 145 135 188 125 111 114 127 123 148 168 181 241 303 241 232 257 305 307 327 343 359 354
272 278 286 302 292 275 265 264 258 264 264 258 259 262 262 224 189 171 148 124 133 135 134 127 113 103 100 121 112 176 195 196 145 192 160 268 44 172 223 300 308 325 345 1 358
267 265 264 283 297 275 262 258 262 256 262 257 250 241 255 200 182 176 168 154 128 126 119 120 100 101 134 141 133 199 225 238 175 196 226 220 300 143 238 267 290 325 347 360 356
273 260 262 255 290 278 260 255 261 264 249 255 235 238 235 203 185 177 177 157 144 130 106 92 126 157 173 183 181 189 210 205 214 164 222 231 259 257 253 256 280 305 332 3 4
267 258 256 261 254 280 261 237 260 269 222 224 167 251 179 183 168 177 174 168 155 162 192 127 223 208 196 206 59 58 136 147 161 113 284 247 270 268 254 251 266 289 328 16 17
254 257 245 235 249 266 256 210 212 271 275 236 231 219 196 171 171 184 175 185 197 183 152 179 239 84 98 149 133 120 152 198 241 227 261 293 277 270 244 248 266 286 320 15 17
245 244 236 228 241 248 243 233 255 267 265 224 213 205 188 188 206 182 174 182 203 182 183 248 76 140 177 166 158 157 235 194 334 223 241 286 268 210 203 229 246 259 302 15 26
244 236 225 220 221 226 220 213 227 242 279 191 204 201 189 168 207 184 174 185 171 194 171 151 148 175 183 191 245 186 130 153 162 237 304 231 307 191 198 223 226 237 125 42 37
238 235 234 219 207 197 171 170 200 315 269 133 154 179 171 182 134 182 173 163 182 147 188 112 164 171 191 41 247 85 152 152 170 268 313 184 255 127 159 230 216 169 148 201 196
237 244 231 222 222 217 202 156 144 76 242 183 147 164 159 185 150 130 161 120 127 118 71 97 66 242 43 92 298 140 136 161 200 274 249 139 254 185 180 192 150 155 193 202 186
233 237 236 226 218 217 184 142 112 205 268 190 189 180 188 168 163 185 180 170 159 124 167 138 168 145 169 123 133 215 189 164 213 211 255 147 236 293 151 145 167 174 196 195 169
231 236 242 243 221 212 153 110 183 210 204 110 143 169 186 154 185 186 181 194 215 232 148 167 204 186 177 241 214 197 280 242 220 211 79 159 229 204 129 150 154 175 187 175 167
219 226 212 213 216 187 141 182 212 204 183 153 148 161 199 190 156 172 200 206 204 205 181 186 132 112 186 208 257 170 215 18 96 86 274 192 237 171 173 176 193 194 189 191 182
211 197 207 204 195 174 163 197 235 255 159 169 183 187 179 176 161 194 184 209 202 192 240 180 120 193 127 198 220 274 28 162 216 195 238 164 266 218 211 195 194 200 200 197 188
240 185 196 187 164 169 185 194 181 222 183 189 199 148 184 175 175 193 201 158 199 183 183 160 134 138 152 208 184 171 201 217 307 256 252 277 234 14 190 185 188 194 198 193 189
235 174 174 172 147 226 193 168 196 170 205 206 245 184 173 170 176 204 214 228 187 169 176 167 100 153 185 70 304 275 236 193 219 183 226 333 274 87 96 141 170 183 186 188 188
204 133 167 175 176 201 125 141 211 156 181 169 180 166 153 176 171 199 181 20 189 185 173 177 174 120 111 198 193 224 203 228 130 34 202 172 201 111 141 160 171 171 178 184 183
222 133 185 200 252 176 180 180 191 208 164 158 155 125 130 160 17 176 193 124 184 212 11 171 184 212 212 141 141 195 200 197 204 176 160 231 296 192 198 199 192 191 177 185 189
216 201 172 187 219 194 190 167 188 157 179 171 234 215 169 147 168 201 153 126 152 202 110 186 215 169 84 43 270 240 186 191 203 206 197 228 229 217 204 200 200 202 190 183 191
223 185 171 213 203 191 194 188 183 176 156 192 221 205 192 159 187 178 155 175 160 163 180 175 223 132 220 2 330 264 218 202 216 228 242 262 275 241 238 197 197 197 191 199 200
213 250 199 195 186 180 197 185 196 176 207 192 198 155 187 172 124 94 97 103 106 179 176 165 148 142 230 63 319 261 209 200 204 215 214 218 225 164 199 215 204 195 199 205 207